Weather History for Llano, TX

Change the Weather History Date:

Tuesday, November 13, 2012

  Actual Average (KBMQ) Record (KBMQ)
Temperature  
Mean Temperature 42 °F -  
Max Temperature 55 °F 65 °F 84 °F (2011)
Min Temperature 30 °F 47 °F 30 °F (2013)
Degree Days  
Heating Degree Days 22    
Moisture  
Dew Point 25 °F    
Average Humidity 56    
Maximum Humidity 81    
Minimum Humidity 28    
Precipitation  
Precipitation 0.00 in - - ()
Sea Level Pressure  
Sea Level Pressure 30.44 in    
Wind  
Wind Speed 2 mph (SE)    
Max Wind Speed 9 mph    
Max Gust Speed -    
Visibility 9 miles    
Events      
Averages and records for this station are not official NWS values.
T = Trace of Precipitation, MM = Missing Value Source: NWS Daily Summary

Daily Weather History Graph

Daily Weather History Graph

Search for Another Location

Airport:

Trip Planner

Search our weather history database for the weather conditions in past years. The results will help you decide how hot, cold, wet, or windy it might be!

Date:

Astronomy

Nov. 13, 2012 Rise Set
Actual Time 6:59 AM CST 5:37 PM CST
Civil Twilight 6:34 AM CST 6:03 PM CST
Nautical Twilight 6:05 AM CST 6:32 PM CST
Astronomical Twilight 5:36 AM CST 7:00 PM CST
Moon 6:38 AM CST (11/13) 5:34 PM CST (11/13)
Length of Visible Light 11h 28m
Length of Day
10h 37m
Waning Crescent, 0% of the Moon is Illuminated
Nov 13
Waning Crescent
Nov 13
New
Nov 20
First Quarter
Nov 28
Full
Dec 6
Last Quarter

Hourly Weather History & Observations

Time (CST) Temp. Windchill Dew Point Humidity Pressure Visibility Wind Dir Wind Speed Gust Speed Precip Events Conditions
12:15 AM 33.8 °F - 23.0 °F 65% 30.53 in 7.0 mi Calm Calm - N/A   Clear
12:35 AM 32.0 °F - 24.8 °F 75% 30.52 in 10.0 mi Calm Calm - N/A   Clear
12:55 AM 33.8 °F - 24.8 °F 70% 30.51 in 3.0 mi Calm Calm - N/A   Clear
1:15 AM 33.8 °F - 24.8 °F 70% 30.51 in 4.0 mi Calm Calm - N/A   Clear
1:35 AM 32.0 °F - 23.0 °F 69% 30.51 in 10.0 mi Calm Calm - N/A   Clear
1:55 AM 32.0 °F - 24.8 °F 75% 30.51 in 4.0 mi Calm Calm - N/A   Clear
2:15 AM 30.2 °F - 24.8 °F 80% 30.50 in 10.0 mi Calm Calm - N/A   Clear
2:35 AM 32.0 °F - 24.8 °F 75% 30.49 in 1.5 mi Calm Calm - N/A   Clear
2:55 AM 30.2 °F - 24.8 °F 80% 30.48 in 10.0 mi Calm Calm - N/A   Clear
3:15 AM 32.0 °F - 23.0 °F 69% 30.48 in 5.0 mi Calm Calm - N/A   Clear
3:35 AM 32.0 °F - 24.8 °F 75% 30.48 in 10.0 mi Calm Calm - N/A   Clear
3:55 AM 32.0 °F - 24.8 °F 75% 30.48 in 9.0 mi Calm Calm - N/A   Clear
4:15 AM 30.2 °F - 24.8 °F 80% 30.48 in 6.0 mi Calm Calm - N/A   Clear
4:35 AM 32.0 °F - 26.6 °F 80% 30.48 in 5.0 mi Calm Calm - N/A   Clear
4:55 AM 30.2 °F - 24.8 °F 80% 30.47 in 10.0 mi Calm Calm - N/A   Clear
5:15 AM 30.2 °F - 24.8 °F 80% 30.48 in 8.0 mi Calm Calm - N/A   Clear
5:35 AM 30.2 °F 25.4 °F 24.8 °F 80% 30.48 in 10.0 mi North 4.6 mph - N/A   Clear
5:55 AM 32.0 °F - 26.6 °F 80% 30.49 in 10.0 mi Calm Calm - N/A   Clear
6:15 AM 32.0 °F - 26.6 °F 80% 30.50 in 10.0 mi Calm Calm - N/A   Clear
6:35 AM 32.0 °F - 26.6 °F 80% 30.50 in 10.0 mi Calm Calm - N/A   Clear
6:55 AM 32.0 °F - 26.6 °F 80% 30.51 in 10.0 mi Calm Calm - N/A   Clear
7:15 AM 33.8 °F - 26.6 °F 75% 30.51 in 10.0 mi Calm Calm - N/A   Clear
7:35 AM 33.8 °F - 28.4 °F 81% 30.52 in 10.0 mi Calm Calm - N/A   Clear
7:55 AM 35.6 °F - 30.2 °F 81% 30.53 in 10.0 mi Calm Calm - N/A   Clear
8:15 AM 39.2 °F - 28.4 °F 65% 30.52 in 10.0 mi Calm Calm - N/A   Clear
8:55 AM 44.6 °F 43.1 °F 28.4 °F 53% 30.52 in 10.0 mi South 3.5 mph - N/A   Clear
9:15 AM 46.4 °F 45.2 °F 28.4 °F 50% 30.52 in 10.0 mi SE 3.5 mph - N/A   Mostly Cloudy
9:55 AM 50.0 °F - 26.6 °F 40% 30.51 in 10.0 mi ESE 8.1 mph - N/A   Overcast
10:15 AM 50.0 °F - 26.6 °F 40% 30.50 in 10.0 mi SE 8.1 mph - N/A   Overcast
10:35 AM 50.0 °F - 26.6 °F 40% 30.51 in 10.0 mi SE 6.9 mph - N/A   Overcast
10:55 AM 51.8 °F - 26.6 °F 38% 30.50 in 10.0 mi SE 4.6 mph - N/A   Overcast
11:15 AM 51.8 °F - 24.8 °F 35% 30.49 in 10.0 mi SSE 5.8 mph - N/A   Overcast
11:35 AM 51.8 °F - 23.0 °F 33% 30.46 in 10.0 mi SSE 9.2 mph - N/A   Mostly Cloudy
11:55 AM 53.6 °F - 21.2 °F 28% 30.45 in 10.0 mi SSE 9.2 mph - N/A   Overcast
12:15 PM 53.6 °F - 21.2 °F 28% 30.44 in 10.0 mi SE 6.9 mph - N/A   Mostly Cloudy
12:35 PM 55.4 °F - 23.0 °F 29% 30.43 in 10.0 mi SSE 8.1 mph - N/A   Overcast
12:55 PM 53.6 °F - 23.0 °F 30% 30.42 in 10.0 mi SSE 6.9 mph - N/A   Overcast
1:15 PM 53.6 °F - 23.0 °F 30% 30.42 in 10.0 mi South 8.1 mph - N/A   Overcast
1:35 PM 53.6 °F - 23.0 °F 30% 30.42 in 10.0 mi South 6.9 mph - N/A   Overcast
1:55 PM 53.6 °F - 23.0 °F 30% 30.41 in 10.0 mi South 5.8 mph - N/A   Overcast
2:15 PM 53.6 °F - 23.0 °F 30% 30.39 in 10.0 mi SSE 6.9 mph - N/A   Overcast
2:35 PM 53.6 °F - 23.0 °F 30% 30.39 in 10.0 mi SE 4.6 mph - N/A   Mostly Cloudy
2:55 PM 53.6 °F - 23.0 °F 30% 30.38 in 10.0 mi SSE 5.8 mph - N/A   Mostly Cloudy
3:15 PM 53.6 °F - 23.0 °F 30% 30.38 in 10.0 mi SSE 6.9 mph - N/A   Overcast
3:35 PM 53.6 °F - 23.0 °F 30% 30.37 in 10.0 mi East 5.8 mph - N/A   Overcast
3:55 PM 53.6 °F - 21.2 °F 28% 30.37 in 10.0 mi East 6.9 mph - N/A   Overcast
4:15 PM 53.6 °F - 21.2 °F 28% 30.37 in 10.0 mi SE 4.6 mph - N/A   Overcast
4:35 PM 53.6 °F - 21.2 °F 28% 30.37 in 10.0 mi Calm Calm - N/A   Overcast
4:55 PM 53.6 °F - 23.0 °F 30% 30.36 in 10.0 mi SE 4.6 mph - N/A   Overcast
5:15 PM 53.6 °F - 23.0 °F 30% 30.36 in 10.0 mi SE 5.8 mph - N/A   Overcast
5:35 PM 53.6 °F - 23.0 °F 30% 30.36 in 10.0 mi SE 4.6 mph - N/A   Overcast
5:55 PM 51.8 °F - 23.0 °F 33% 30.36 in 10.0 mi SSE 4.6 mph - N/A   Overcast
6:15 PM 50.0 °F - 23.0 °F 35% 30.36 in 10.0 mi Calm Calm - N/A   Scattered Clouds
6:35 PM 48.2 °F - 24.8 °F 40% 30.36 in 10.0 mi Calm Calm - N/A   Clear
6:55 PM 46.4 °F - 26.6 °F 46% 30.36 in 10.0 mi Calm Calm - N/A   Clear
7:15 PM 44.6 °F - 26.6 °F 49% 30.36 in 10.0 mi Calm Calm - N/A   Clear
7:35 PM 39.2 °F - 28.4 °F 65% 30.37 in 10.0 mi Calm Calm - N/A   Clear
7:55 PM 39.2 °F 35.9 °F 28.4 °F 65% 30.38 in 10.0 mi North 4.6 mph - N/A   Clear
8:15 PM 39.2 °F - 26.6 °F 61% 30.39 in 10.0 mi Calm Calm - N/A   Clear
8:35 PM 39.2 °F - 26.6 °F 61% 30.39 in 10.0 mi Calm Calm - N/A   Clear
8:55 PM 39.2 °F - 26.6 °F 61% 30.39 in 10.0 mi Calm Calm - N/A   Clear
9:15 PM 37.4 °F - 28.4 °F 70% 30.39 in 10.0 mi Calm Calm - N/A   Clear
9:35 PM 35.6 °F - 26.6 °F 70% 30.39 in 10.0 mi Calm Calm - N/A   Clear
9:55 PM 35.6 °F - 28.4 °F 75% 30.40 in 10.0 mi Calm Calm - N/A   Clear
10:15 PM 35.6 °F - 28.4 °F 75% 30.40 in 10.0 mi Calm Calm - N/A   Clear
10:35 PM 37.4 °F - 28.4 °F 70% 30.40 in 10.0 mi Calm Calm - N/A   Clear
10:55 PM 33.8 °F - 28.4 °F 81% 30.40 in 10.0 mi Calm Calm - N/A   Clear
11:15 PM 35.6 °F - 26.6 °F 70% 30.40 in 10.0 mi Calm Calm - N/A   Clear
11:55 PM 33.8 °F 30.8 °F 28.4 °F 81% 30.40 in 10.0 mi North 3.5 mph - N/A   Clear